Location: Rumah Long Bangan
(2.8362°N, 113.7519°E)
Time: 05:30:07
(UTC+00:00)

Centaur D-1AR AC-40 - Pass Details

Date: 24 October 2021
Orbit: 558 x 36085 km, 22.2° (Epoch: 28 November)

Event Time Altitude Azimuth Distance (km) Brightness Sun altitude
Exits shadow 20:48:37 18° 342° (NNW) 1,829 3.7 -20.3°
Maximum altitude 20:49:54 19° 4° (N) 1,980 4.0 -20.0°
Drops below altitude 10° 20:55:42 10° 49° (NE) 4,152 6.2 -18.5°
Sets 21:04:28 0° 64° (ENE) 7,896 8.1 -16.4°
